Location: New York
(40.7127°N, 74.0060°W)
Time: 17:36:44
(UTC-04:00)

VELOX 1 - Pass Details

Date: 03 May 2024
Orbit: 605 x 617 km, 98.3° (Epoch: 27 May)

Event Time Altitude Azimuth Distance (km) Brightness Sun altitude
Rises 20:31:18 0° 20° (NNE) 2,900 ? -7.1°
Reaches altitude 10° 20:33:36 10° 28° (NNE) 1,988 ? -7.4°
Maximum altitude 20:37:42 41° 99° (E) 902 ? -8.1°
Drops below altitude 10° 20:41:44 10° 170° (S) 1,968 ? -8.8°
Sets 20:44:00 0° 177° (S) 2,866 ? -9.2°
